Location: Veyrier
(46.1830°N, 6.2000°E)
Time: 21:52:20
(UTC+02:00)

Daily predictions for brighter satellites

Satellite Brightness Start Highest point End
(mag) Time Altitude Azimuth Time Altitude Azimuth Time Altitude Azimuth
Cosmos 2026 Rocket 4.2 20:54:53 10° S 21:01:15 89° W 21:07:41 10° N
EXPRESS MD2 3.0 21:00:45 10° SW 21:03:09 46° SE 21:07:05 10° ENE
Cosmos 44 Rocket 4.5 20:58:50 10° NW 21:03:16 41° WSW 21:07:46 10° S
Resurs 01 Rocket 1.7 20:59:15 10° SSE 21:03:42 86° ENE 21:08:10 10° NNW
Cosmos 839 Rocket 4.0 20:59:19 10° SSW 21:05:30 73° ESE 21:11:50 10° NE
YAOGAN 6 3.6 21:05:20 10° SE 21:08:22 27° ENE 21:11:24 10° N
Cosmos 2360 Rocket 3.3 21:04:48 10° SSE 21:08:54 21° E 21:13:00 10° NE
Cosmos 1980 Rocket 2.9 21:04:07 10° SW 21:09:39 62° WNW 21:15:13 10° NNE
Cosmos 2151 Rocket 3.6 21:06:53 10° S 21:11:13 64° E 21:15:35 10° NNE
ERS-1 Rocket 4.3 21:07:19 10° ESE 21:11:15 24° ENE 21:15:13 10° N
Cosmos 1741 Rocket 4.0 21:11:11 10° NNW 21:16:26 74° ENE 21:21:42 10° SSE
ERBS 3.4 21:13:32 10° WSW 21:16:56 50° NW 21:20:20 10° NE
ATLAS 2AS CENTAUR R/B 3.4 21:11:05 10° S 21:18:11 42° ESE 21:25:40 10° NE
Helios 1A 3.7 21:15:21 10° SE 21:19:17 38° ENE 21:23:13 10° N
Cosmos 1655 Rocket 4.2 21:14:23 10° S 21:20:42 84° W 21:27:06 10° N
Tiangong 1 2.1 21:18:16 10° WSW 21:20:44 28° SSW 21:22:52 12° SE
Envisat 3.0 21:16:15 10° SSE 21:21:20 85° ENE 21:26:27 10° NNW
Abrixas rocket 2.8 21:20:12 10° W 21:23:25 55° N 21:26:40 10° E
Cosmos 1536 Rocket 3.5 21:19:48 10° N 21:24:09 88° E 21:28:29 10° S
NOSS 3-1 (A) 4.3 21:19:28 10° WSW 21:25:15 54° NW 21:31:51 10° NE
NOSS 2-3 (E) 4.0 21:23:58 10° SSW 21:28:33 54° ESE 21:33:55 10° NE
Meteor 2-4 Rocket 3.7 21:23:24 10° N 21:28:58 78° ENE 21:34:41 10° SSE
H-2A R/B 3.7 21:25:50 10° E 21:29:02 17° ENE 21:32:14 10° NNE
Cosmos 1939 Rocket 2.8 21:31:20 10° SSE 21:35:19 85° ENE 21:39:15 10° NNW
Lacrosse 5 rocket 3.7 21:33:25 10° W 21:35:20 14° SW 21:37:19 10° SSW
Cosmos 1536 2.8 21:32:54 10° S 21:36:56 66° E 21:40:59 10° NNE
Meteor 1-29 4.1 21:34:24 10° NE 21:37:14 23° E 21:38:57 16° SE
Cosmos 883 Rocket 4.5 21:34:19 10° N 21:40:27 68° E 21:46:34 10° SSE
BREEZE-M DEB (TANK) 3.0 21:45:21 10° SW 21:48:29 63° SE 21:58:10 10° ENE
Cosmos 1110 Rocket 4.3 21:45:08 10° S 21:50:00 44° ESE 21:54:54 10° NNE
Atlas Centaur 2 4.3 21:51:14 10° WSW 21:56:53 21° SSW 22:01:00 13° SSE
SAR-Lupe-4 3.9 21:55:09 23° SE 21:57:05 49° ENE 22:00:35 10° N
SPOT 5 3.7 21:56:37 20° ESE 21:59:04 33° ENE 22:03:12 10° N
Cosmos 1607 4.3 21:54:05 10° NW 22:00:30 68° WSW 22:05:53 15° SSE
NOSS 2-3 (C) 4.0 21:57:25 10° SW 22:02:12 86° NW 22:07:54 10° NE
Lacrosse 5 1.8 21:57:25 10° SW 22:02:25 63° SE 22:07:27 10° NE
Cosmos 1331 Rocket 4.1 21:58:17 10° S 22:03:17 51° ESE 22:08:21 10° NNE
Helios 1B rocket 2.3 21:59:41 10° NNE 22:03:48 68° ESE 22:07:53 10° S
SeaSat 1 2.6 22:01:54 10° NNE 22:06:52 79° WNW 22:11:47 10° SW
ARGOS 3.4 22:03:49 22° SE 22:07:08 52° ENE 22:12:21 10° N
Cosmos 1455 Rocket 4.3 22:08:41 23° E 22:09:13 24° E 22:12:47 10° NE
CZ-4B DEB 2.4 22:08:22 32° S 22:09:33 82° WSW 22:12:27 10° NNW
NOSS 3-2 (A) 4.4 22:03:38 10° NW 22:10:46 52° NE 22:16:06 21° ESE
BREEZE-M DEB (TANK) 1.0 22:08:51 10° WSW 22:11:29 80° NNW 22:11:49 56° NE
Cosmos 405 3.8 22:12:40 31° E 22:12:46 32° E 22:16:01 10° NNE
USA 238 DEB 3.8 22:05:52 10° NW 22:12:59 79° NE 22:17:38 24° SE
USA 238 3.8 22:05:58 10° NW 22:13:05 79° NE 22:17:43 24° SE
Cosmos 2263 Rocket 3.1 22:08:07 10° NW 22:13:32 46° WSW 22:18:48 11° S
SAR-Lupe-1 4.0 22:12:31 33° SE 22:13:57 66° ENE 22:17:31 10° N
SL-8 R/B 3.6 22:09:09 10° WNW 22:13:58 82° SSW 22:16:23 29° ESE
Cosmos 2278 Rocket 3.7 22:11:59 10° N 22:16:29 23° NE 22:19:18 16° E
SL-08 RB Rocket 4.0 22:17:04 30° SE 22:18:57 49° ENE 22:23:20 10° N
Cosmos 2266 Rocket 4.3 22:13:15 10° SSW 22:19:14 66° W 22:25:16 10° N
Cosmos 2322 Rocket 3.2 22:14:10 10° SW 22:19:41 50° WNW 22:25:14 10° NNE
Cosmos 1844 Rocket 3.1 22:15:16 10° NNW 22:20:50 51° ENE 22:23:31 29° ESE
Cosmos 2315 Rocket 4.1 22:17:01 10° N 22:23:17 80° W 22:28:46 14° S
Cosmos 2237 4.3 22:19:47 10° S 22:25:17 53° ESE 22:30:50 10° NE
Okean 1 Rocket 3.8 22:23:08 10° SSW 22:27:23 52° WNW 22:31:42 10° N
Molniya-1 3.9 22:25:33 10° NNW 22:28:12 58° NE 22:28:35 53° E
ATLAS 3B R/B 2.6 22:21:38 10° NW 22:28:23 77° WSW 22:32:09 27° SSE
Cosmos 1818 4.1 22:28:24 32° SE 22:29:20 35° ESE 22:34:14 10° NE
Cosmos 1025 Rocket 3.5 22:25:27 10° NNW 22:29:38 56° W 22:32:31 19° SSW
SPOT 1/Viking Rocket 3.9 22:28:06 32° SE 22:30:12 51° ENE 22:35:15 10° N
Nadezhda 2 Rocket 4.5 22:24:48 10° S 22:30:57 87° W 22:37:15 10° N
SL-16 R/B 3.5 22:26:28 10° SW 22:31:48 41° NW 22:37:11 10° NNE
BREEZE M DEB (TANK) 3.7 22:25:49 10° W 22:33:17 57° N 22:34:52 28° ENE
Okean 2 3.9 22:30:00 10° NNW 22:34:01 56° W 22:36:18 24° SSW
Cosmos 1743 3.9 22:35:51 27° ENE 22:35:51 27° ENE 22:38:22 10° NNE
MetOp-B 4.2 22:34:02 25° S 22:37:16 78° WSW 22:42:39 10° NNW
Okean 1-7 Rocket 4.4 22:33:10 10° NNW 22:37:32 51° W 22:40:35 19° SSW
Cosmos 2219 Rocket 3.0 22:37:49 30° E 22:37:49 30° E 22:42:26 10° NE
Meteor 1-12 Rocket 4.3 22:35:17 30° SSE 22:37:51 56° E 22:43:22 10° NNE
Cosmos 1503 Rocket 4.5 22:35:19 10° NNW 22:40:32 48° ENE 22:42:10 36° ESE
Terra 2.7 22:41:21 30° E 22:42:10 32° ENE 22:46:24 10° N
Cosmos 2322 3.6 22:36:59 10° SSW 22:42:39 89° WNW 22:48:23 10° NNE
YAOGAN 11 4.0 22:46:28 51° SSE 22:47:30 81° ENE 22:51:51 10° NNW
Cosmos 1745 Rocket 4.1 22:47:16 36° SSE 22:49:29 55° E 22:55:29 10° NNE
ERS-1 Rocket 3.7 22:46:39 22° SSW 22:49:44 50° W 22:54:38 10° NNW
NOSS 3-2 (C) 4.1 22:42:30 10° NW 22:49:50 64° NE 22:53:45 32° ESE
Cosmos 1602 Rocket 4.3 22:47:15 10° N 22:51:15 36° ENE 22:51:15 36° ENE
Cosmos 2360 Rocket 2.6 22:46:47 10° SW 22:52:22 64° WNW 22:57:59 10° NNE
COSMOS 2428 2.7 22:50:11 27° S 22:53:19 64° ESE 22:59:00 10° NNE
Cosmos 1975 2.7 22:53:19 59° SSW 22:54:03 87° W 22:58:04 10° N
H-2A R/B 3.6 22:55:20 23° ENE 22:55:23 23° ENE 22:58:52 10° NNE
Cosmos 1844 3.7 22:52:52 10° NNW 22:58:35 76° ENE 23:00:13 48° SE
Abrixas rocket 2.9 22:56:59 10° WNW 22:59:32 50° WNW 22:59:32 50° WNW
USA 245 4.1 22:59:05 36° SSW 23:00:52 60° WSW 23:05:00 10° NNW
Cosmos 2333 Rocket 2.7 23:07:13 39° E 23:07:13 39° E 23:11:53 10° NE
H-2A R/B 2.1 23:06:28 46° S 23:07:56 72° WSW 23:12:55 10° NNW
Cosmos 1500 4.4 23:07:20 26° SW 23:08:59 40° WNW 23:12:41 10° N
ATLAS 2AS CENTAUR R/B 3.6 23:01:19 10° WSW 23:09:03 59° NW 23:17:08 10° NE
Cosmos 1386 Rocket 4.4 23:12:20 49° SSE 23:13:57 67° E 23:20:13 10° NNE
Cosmos 2333 4.0 23:11:18 33° SSW 23:13:59 84° ESE 23:19:39 10° NNE
Cosmos 1626 Rocket 3.5 23:10:55 10° N 23:15:00 67° NE 23:15:00 67° NE
COSMOS 2455 4.3 23:10:09 10° NNW 23:15:16 28° NE 23:17:36 22° ENE
CENTAUR R/B 3.7 23:10:32 10° NW 23:17:52 47° NE 23:21:53 28° E
NOSS 3-4 (A) 3.6 23:19:25 51° ESE 23:19:25 51° ESE 23:25:37 10° NE
NOSS 3-4 (C) 3.6 23:19:36 50° ESE 23:19:36 50° ESE 23:25:43 10° NE
EXPRESS MD2 4.4 23:17:34 10° W 23:21:12 57° N 23:28:40 10° E
Cosmos 1241 Rocket 4.5 23:16:30 10° SW 23:23:04 88° WNW 23:29:35 10° NE
Cosmos 1302 Rocket 4.5 23:19:12 18° SW 23:23:08 60° WNW 23:28:23 10° NNE
Cosmos 2237 Rocket 3.1 23:25:16 33° ENE 23:25:16 33° ENE 23:28:59 10° NE
Cosmos 1992 Rocket 4.5 23:26:07 45° ENE 23:26:07 45° ENE 23:30:16 10° NNE
ATLAS CENTAUR R/B 3.4 23:25:52 10° N 23:28:18 17° NE 23:28:18 17° NE
Cosmos 1980 4.3 23:31:19 41° ENE 23:31:19 41° ENE 23:35:39 10° NE
Cosmos 1437 Rocket 3.4 23:32:58 56° NW 23:32:58 56° NW 23:36:25 10° N
Cosmos 968 Rocket 3.9 23:27:32 10° NNW 23:32:30 48° ENE 23:32:33 48° ENE
SPOT 5 4.2 23:35:51 27° SW 23:37:07 31° W 23:41:16 10° NW
Nadezhda 1 Rocket 4.2 23:31:05 10° NNW 23:37:20 65° W 23:39:16 44° SSW
GP-B 3.3 23:36:11 10° N 23:40:10 69° NNW 23:40:10 69° NNW
IGS 5A 4.0 23:43:47 56° NW 23:43:47 56° NW 23:47:16 10° NNW
USA 215 4.5 23:37:22 10° ENE 23:43:15 37° N 23:49:09 10° NW
Timation 1 Rocket 4.2 23:37:17 10° NNW 23:43:19 88° WSW 23:43:56 73° SSE
Lacrosse 5 3.2 23:40:56 10° W 23:45:39 38° NNW 23:50:24 10° NE
Cosmos 1455 Rocket 4.4 23:45:47 30° WSW 23:46:51 35° WNW 23:50:59 10° N
Cosmos 2297 4.3 23:42:29 10° NNW 23:47:56 45° ENE 23:48:19 44° ENE
Cosmos 1666 4.1 23:55:07 36° NW 23:55:07 36° NW 23:58:02 10° N
